LogID,LogEntryDate,LogEntryTime,LogEntrySeconds,LogNotes,2ByteRPM,Baro,PSIG,AFR,Load,TimingAdv,KnockSum,TPS,WGDC_Active,IPW,MAFCalcs,MAPCalcs,LoadMIVEC,WGDCCorr,ZTXRPM,ZTXTPS,ZTXUser1,ZTXUser2,ZTXBoost,ZTXConfig,APP,MAT,ECT,IAT,Speed,MAF,STFT,IdleLTFT,CruiseLTFT,CurrentLTFT,AFRMAP,FrontO2,O2Sensor2,Battery,InVVTtarget,InVVTactual,ExVVTtarget,ExVVTactual,MAFHz,knock_adc_processed,knock_base,knock_var,knock_change,knock_dynamics,knock_flag,CruiseLight,Custom
1,2015-11-07,14:39:07.29159,0.10397,,996.09375,15.2289627,-10.1633952,0,18.125,12,0,10.9803921568627,0,2.12,18.27392578125,19.2138671875,,0,,,,,0,,,125.6,,96.8,,1.4111328125,,,,,,,,,,,,,,,,,,,,,
2,2015-11-07,14:39:07.35399,0.16596,,984.375,15.2289627,-10.2116387,11.4,18.4375,12,0,10.9803921568627,0,2.12,19.0185546875,19.378662109375,,0,,,,,-18.9,,,125.6,,96.8,,1.416015625,,,,,,,,,,,,,,,,,,,,,
3,2015-11-07,14:39:07.40079,0.21841,,976.5625,15.2289627,-10.2116387,11.4,18.4375,12,0,10.9803921568627,0,2.136,18.939208984375,19.378662109375,,0,,,,,-18.8,,,125.6,,96.8,,1.474609375,,,,,,,,,,,,,,,,,,,,,
4,2015-11-07,14:39:07.46319,0.28428,,980.46875,15.2289627,-10.0669082,11.4,18.4375,12,0,10.9803921568627,0,2.136,18.798828125,19.378662109375,,0,,,,,-18.8,,,125.6,,96.8,,1.4794921875,,,,,,,,,,,,,,,,,,,,,
5,2015-11-07,14:39:07.54119,0.3566,,980.46875,15.2289627,-10.1633952,11.4,18.75,12,0,10.9803921568627,0,2.136,18.71337890625,19.378662109375,,0,,,,,-18.9,,,125.6,,96.8,,1.4013671875,,,,,,,,,,,,,,,,,,,,,
6,2015-11-07,14:39:07.60359,0.42504,,984.375,15.2289627,-10.1151517,11.4,18.75,11,0,10.9803921568627,0,2.12,18.71337890625,19.378662109375,,0,,,,,-19.2,,,125.6,,96.8,,1.46484375,,,,,,,,,,,,,,,,,,,,,
7,2015-11-07,14:39:07.69719,0.50577,,980.46875,15.2289627,-10.0186647,11.4,18.75,11,0,10.9803921568627,0,2.136,18.817138671875,19.598388671875,,0,,,,,-19.1,,,125.6,,96.8,,1.4013671875,,,,,,,,,,,,,,,,,,,,,
8,2015-11-07,14:39:07.75959,0.5713,,976.5625,15.2289627,-10.1633952,11.4,18.75,11,0,10.9803921568627,0,2.136,18.963623046875,19.598388671875,,0,,,,,-19.2,,,125.6,,96.8,,1.416015625,,,,,,,,,,,,,,,,,,,,,
9,2015-11-07,14:39:07.82199,0.62959,,976.5625,15.2289627,-10.0186647,11.4,18.75,11,0,10.9803921568627,0,2.168,18.890380859375,19.598388671875,,0,,,,,-19.2,,,125.6,,96.8,,1.4013671875,,,,,,,,,,,,,,,,,,,,,
10,2015-11-07,14:39:07.88439,0.69492,,976.5625,15.2289627,-10.1633952,11.5,18.75,11,0,10.9803921568627,0,2.168,18.780517578125,19.598388671875,,0,,,,,-19.3,,,125.6,,96.8,,1.435546875,,,,,,,,,,,,,,,,,,,,,
11,2015-11-07,14:39:07.93119,0.73921,,976.5625,15.2289627,-10.0186647,11.4,18.75,11,0,10.9803921568627,0,2.168,19.0673828125,19.598388671875,,0,,,,,-18.9,,,125.6,,96.8,,1.435546875,,,,,,,,,,,,,,,,,,,,,
12,2015-11-07,14:39:07.96239,0.78071,,980.46875,15.2289627,-10.0186647,11.5,18.75,11,0,10.9803921568627,0,2.168,18.81103515625,19.598388671875,,0,,,,,-19.2,,,125.6,,96.8,,1.435546875,,,,,,,,,,,,,,,,,,,,,
13,2015-11-07,14:39:08.02479,0.84622,,972.65625,15.2289627,-10.0669082,11.5,18.75,11,0,10.9803921568627,0,2.168,18.83544921875,19.598388671875,,0,,,,,-19.1,,,125.6,,96.8,,1.4013671875,,,,,,,,,,,,,,,,,,,,,
14,2015-11-07,14:39:08.08719,0.90784,,976.5625,15.2289627,-10.0669082,11.5,18.75,11,0,10.9803921568627,0,2.168,18.7744140625,19.598388671875,,0,,,,,-18.9,,,125.6,,96.8,,1.416015625,,,,,,,,,,,,,,,,,,,,,
15,2015-11-07,14:39:08.14959,0.96443,,972.65625,15.2289627,-10.1151517,11.4,18.75,11,0,10.9803921568627,0,2.168,18.914794921875,19.598388671875,,0,,,,,-18.8,,,125.6,,96.8,,1.4013671875,,,,,,,,,,,,,,,,,,,,,
16,2015-11-07,14:39:08.21199,1.03118,,972.65625,15.2289627,-10.1151517,11.5,18.75,11,0,10.9803921568627,0,2.16,18.963623046875,19.8486328125,,0,,,,,-18.7,,,125.6,,96.8,,1.40625,,,,,,,,,,,,,,,,,,,,,
17,2015-11-07,14:39:08.27439,1.08655,,972.65625,15.2289627,-10.0186647,11.4,18.75,10,0,10.9803921568627,0,2.16,18.914794921875,19.8486328125,,0,,,,,-18.8,,,125.6,,96.8,,1.4208984375,,,,,,,,,,,,,,,,,,,,,
18,2015-11-07,14:39:08.33679,1.15405,,976.5625,15.2289627,-10.1151517,11.5,18.75,10,0,10.9803921568627,0,2.144,18.975830078125,19.854736328125,,0,,,,,-19.2,,,125.6,,96.8,,1.416015625,,,,,,,,,,,,,,,,,,,,,
19,2015-11-07,14:39:08.41479,1.23513,,968.75,15.2289627,-10.0669082,11.5,18.75,11,0,10.9803921568627,0,2.176,18.93310546875,19.8486328125,,0,,,,,-18.9,,,125.6,,96.8,,1.484375,,,,,,,,,,,,,,,,,,,,,
20,2015-11-07,14:39:08.49279,1.30601,,976.5625,15.2289627,-10.0669082,11.5,18.75,10,0,10.9803921568627,0,2.16,19.00634765625,19.8486328125,,0,,,,,-19.1,,,125.6,,96.8,,1.4208984375,,,,,,,,,,,,,,,,,,,,,
21,2015-11-07,14:39:08.57079,1.384,,972.65625,15.2289627,-10.1151517,11.4,18.75,10,0,10.9803921568627,0,2.16,19.366455078125,19.854736328125,,0,,,,,-18.8,,,125.6,,96.8,,1.494140625,,,,,,,,,,,,,,,,,,,,,
22,2015-11-07,14:39:08.64879,1.45699,,968.75,15.2289627,-9.9704212,11.5,19.0625,10,0,10.9803921568627,0,2.16,19.268798828125,19.854736328125,,0,,,,,-18.9,,,125.6,,96.8,,1.4453125,,,,,,,,,,,,,,,,,,,,,
23,2015-11-07,14:39:08.69559,1.50979,,964.84375,15.2289627,-10.0669082,11.4,19.0625,10,0,10.9803921568627,0,2.16,19.27490234375,19.854736328125,,0,,,,,-18.9,,,125.6,,96.8,,1.4990234375,,,,,,,,,,,,,,,,,,,,,
24,2015-11-07,14:39:08.77359,1.58557,,960.9375,15.2289627,-10.0669082,11.4,19.0625,11,0,10.9803921568627,0,2.184,19.390869140625,19.854736328125,,0,,,,,-19.2,,,125.6,,96.8,,1.455078125,,,,,,,,,,,,,,,,,,,,,
25,2015-11-07,14:39:08.85159,1.65985,,964.84375,15.2289627,-10.1151517,11.4,19.0625,10,0,10.9803921568627,0,2.184,19.23828125,19.854736328125,,0,,,,,-18.7,,,125.6,,96.8,,1.4697265625,,,,,,,,,,,,,,,,,,,,,
26,2015-11-07,14:39:08.91399,1.7266,,957.03125,15.2289627,-9.9704212,11.3,19.0625,10,0,10.9803921568627,0,2.184,19.183349609375,19.854736328125,,0,,,,,-19.2,,,125.6,,96.8,,1.494140625,,,,,,,,,,,,,,,,,,,,,
27,2015-11-07,14:39:08.97639,1.79168,,964.84375,15.2289627,-9.9221777,11.3,19.0625,10,0,10.9803921568627,0,2.136,18.560791015625,19.854736328125,,0,,,,,-18.6,,,125.6,,96.8,,1.4892578125,,,,,,,,,,,,,,,,,,,,,
28,2015-11-07,14:39:09.05439,1.86263,,964.84375,15.2289627,-10.0186647,11.4,19.0625,9,0,10.9803921568627,0,2.176,18.798828125,19.854736328125,,0,,,,,-18.8,,,125.6,,96.8,,1.4404296875,,,,,,,,,,,,,,,,,,,,,
29,2015-11-07,14:39:09.11679,1.9318,,957.03125,15.2289627,-10.1151517,11.4,19.0625,10,0,10.9803921568627,0,2.16,19.1162109375,19.86083984375,,0,,,,,-19.2,,,125.6,,96.8,,1.4208984375,,,,,,,,,,,,,,,,,,,,,
30,2015-11-07,14:39:09.19479,2.00213,,937.5,15.2289627,-10.0669082,11.3,19.375,10,0,10.9803921568627,0,2.208,20.318603515625,19.86083984375,,0,,,,,-18.6,,,125.6,,96.8,,1.396484375,,,,,,,,,,,,,,,,,,,,,
31,2015-11-07,14:39:09.27279,2.08667,,937.5,15.2289627,-9.9221777,11.4,19.375,9,0,10.9803921568627,0,2.192,19.244384765625,20.074462890625,,0,,,,,-18.9,,,125.6,,96.8,,1.4501953125,,,,,,,,,,,,,,,,,,,,,
32,2015-11-07,14:39:09.35079,2.16194,,933.59375,15.2289627,-10.0669082,11.4,19.375,9,0,10.9803921568627,0,2.144,19.012451171875,20.330810546875,,0,,,,,-18.7,,,125.6,,96.8,,1.3916015625,,,,,,,,,,,,,,,,,,,,,
33,2015-11-07,14:39:09.42879,2.24256,,921.875,15.2289627,-9.9704212,11.3,19.375,10,0,10.9803921568627,0,2.128,19.744873046875,20.08056640625,,0,,,,,-19.1,,,125.6,,96.8,,1.4697265625,,,,,,,,,,,,,,,,,,,,,
34,2015-11-07,14:39:09.49119,2.3037,,917.96875,15.2289627,-9.9221777,11.4,19.375,10,0,10.9803921568627,0,2.112,19.573974609375,20.330810546875,,0,,,,,-18.9,,,125.6,,96.8,,1.494140625,,,,,,,,,,,,,,,,,,,,,
35,2015-11-07,14:39:09.53799,2.34744,,917.96875,15.2289627,-9.8739342,11.3,19.375,9,0,10.9803921568627,0,2.112,19.39697265625,20.330810546875,,0,,,,,-18.9,,,125.6,,96.8,,1.416015625,,,,,,,,,,,,,,,,,,,,,
36,2015-11-07,14:39:09.58479,2.40033,,921.875,15.2289627,-10.0186647,11.4,19.375,9,0,10.9803921568627,0,2.104,19.22607421875,20.330810546875,,0,,,,,-18.7,,,125.6,,96.8,,1.4892578125,,,,,,,,,,,,,,,,,,,,,
37,2015-11-07,14:39:09.64719,2.45817,,917.96875,15.2289627,-9.8739342,11.3,19.375,9,0,10.9803921568627,0,2.056,19.0185546875,20.330810546875,,0,,,,,-18.8,,,127.4,,96.8,,1.4501953125,,,,,,,,,,,,,,,,,,,,,
38,2015-11-07,14:39:09.69399,2.50484,,910.15625,15.2289627,-9.8739342,11.3,19.375,10,0,10.9803921568627,0,2.04,19.17724609375,20.330810546875,,0,,,,,-18.6,,,127.4,,96.8,,1.4501953125,,,,,,,,,,,,,,,,,,,,,
39,2015-11-07,14:39:09.74079,2.55637,,914.0625,15.2289627,-9.8739342,11.3,19.375,10,0,13.3333333333333,0,2.072,20.538330078125,20.330810546875,,0,,,,,-18.8,,,127.4,,96.8,,1.8017578125,,,,,,,,,,,,,,,,,,,,,
40,2015-11-07,14:39:09.80319,2.61388,,914.0625,15.2289627,-9.4397427,11.3,20.3125,10,0,16.8627450980392,0,2.232,68.39599609375,20.758056640625,,0,,,,,-18.1,,,127.4,,96.8,,1.8896484375,,,,,,,,,,,,,,,,,,,,,
41,2015-11-07,14:39:09.84999,2.66057,,929.6875,15.2289627,-7.4617592,11.3,20.625,10,0,16.8627450980392,0,2.776,78.74755859375,23.272705078125,,0,,,,,-14.2,,,127.4,,96.8,,1.8896484375,,,,,,,,,,,,,,,,,,,,,
42,2015-11-07,14:39:09.91239,2.7262,,937.5,15.2289627,-6.1591847,11.3,27.8125,8,0,16.078431372549,0,4.008,65.71044921875,32.67822265625,,0,,,,,-11.5,,,127.4,,96.8,,1.630859375,,,,,,,,,,,,,,,,,,,,,
43,2015-11-07,14:39:09.97479,2.79552,,1023.4375,15.2289627,-5.8214802,11.3,35,5,0,13.7254901960784,0.5,3.272,33.746337890625,41.448974609375,,0,,,,,-10.4,,,127.4,,96.8,,1.6259765625,,,,,,,,,,,,,,,,,,,,,
44,2015-11-07,14:39:10.05279,2.86096,,1085.9375,15.2289627,-6.4486457,11.3,34.375,8,0,12.9411764705882,1.5,2.96,27.81982421875,39.09912109375,,0,,,,,-11,,,127.4,,96.8,,1.5673828125,,,,,,,,,,,,,,,,,,,,,
45,2015-11-07,14:39:10.11519,2.92344,,1179.6875,15.2289627,-7.2205417,11.4,32.5,16,0,12.9411764705882,2,2.64,24.71923828125,35.11962890625,,0,,,,,-12.5,,,127.4,,96.8,,1.7333984375,,,,,,,,,,,,,,,,,,,,,
46,2015-11-07,14:39:10.17759,2.99412,,1222.65625,15.2289627,-7.3652722,11.5,31.25,17,0,15.6862745098039,4,2.672,45.20263671875,34.1552734375,,0,,,,,-13.7,,,127.4,,96.8,,1.9091796875,,,,,,,,,,,,,,,,,,,,,
47,2015-11-07,14:39:10.27119,3.08624,,1238.28125,15.2289627,-6.5451327,11.8,34.6875,18,0,17.2549019607843,5,3.24,56.34765625,37.701416015625,,0,,,,,-12.5,,,127.4,,96.8,,1.8603515625,,,,,,,,,,,,,,,,,,,,,
48,2015-11-07,14:39:10.34919,3.16249,,1238.28125,15.2289627,-5.1460712,12.3,42.1875,18,0,18.0392156862745,5.5,3.92,56.463623046875,45.013427734375,,0,,,,,-10.2,,,127.4,,96.8,,1.8896484375,,,,,,,,,,,,,,,,,,,,,
49,2015-11-07,14:39:10.44279,3.25106,,1222.65625,15.2289627,-4.4224187,12.6,48.4375,22,0,18.0392156862745,5,4.16,59.3994140625,54.39453125,,0,,,,,-7.7,,,127.4,,96.8,,1.8994140625,,,,,,,,,,,,,,,,,,,,,
50,2015-11-07,14:39:10.52080,3.32764,,1199.21875,15.2289627,-3.9882272,12.9,53.125,22,0,18.0392156862745,4.5,4.312,57.99560546875,57.97119140625,,0,,,,,-6.5,,,127.4,,96.8,,1.875,,,,,,,,,,,,,,,,,,,,,
51,2015-11-07,14:39:10.58320,3.40397,,1179.6875,15.2289627,-3.6987662,13.2,54.6875,20,3.000003,18.0392156862745,3.5,4.192,55.804443359375,59.918212890625,,0,,,,,-5.5,,,127.4,,96.8,,1.8603515625,,,,,,,,,,,,,,,,,,,,,
52,2015-11-07,14:39:10.67680,3.48407,,1144.53125,15.2289627,-3.4093052,13.5,55.625,20,9.000009,18.4313725490196,3,4.288,59.918212890625,60.919189453125,,0,,,,,-5.1,,,127.4,,96.8,,1.9091796875,,,,,,,,,,,,,,,,,,,,,
53,2015-11-07,14:39:10.73920,3.55319,,1101.5625,15.2289627,-2.9268702,13.8,58.125,18,2.000002,19.2156862745098,2.5,4.592,64.324951171875,62.811279296875,,0,,,,,-4.8,,,127.4,,96.8,,1.8505859375,,,,,,,,,,,,,,,,,,,,,
54,2015-11-07,14:39:10.81720,3.63172,,1074.21875,15.2289627,-2.7338962,13.8,59.6875,18,2.000002,19.2156862745098,1,4.592,63.0859375,64.825439453125,,0,,,,,-3.6,,,127.4,,96.8,,1.8701171875,,,,,,,,,,,,,,,,,,,,,
55,2015-11-07,14:39:10.91080,3.7178,,1019.53125,15.2289627,-2.4444352,13.8,60.9375,17,9.000009,18.8235294117647,0,4.6,62.78076171875,66.339111328125,,0,,,,,-2.9,,,127.4,,96.8,,1.8359375,,,,,,,,,,,,,,,,,,,,,
56,2015-11-07,14:39:10.97320,3.79168,,964.84375,15.2289627,-1.9620002,13.7,61.5625,16,2.000002,18.4313725490196,0,4.648,61.99951171875,65.716552734375,,0,,,,,-2.3,,,127.4,,96.8,,1.8115234375,,,,,,,,,,,,,,,,,,,,,
57,2015-11-07,14:39:11.05120,3.86428,,882.8125,15.2289627,-1.6242957,13.6,62.1875,16,2.000002,18.4313725490196,0,4.944,66.107177734375,64.495849609375,,0,,,,,-1.9,,,127.4,,96.8,,1.728515625,,,,,,,,,,,,,,,,,,,,,
58,2015-11-07,14:39:11.12920,3.93762,,773.4375,15.2289627,-1.5760522,13.6,62.8125,15,2.000002,18.8235294117647,0,4.96,64.642333984375,64.410400390625,,0,,,,,-1.5,,,127.4,,96.8,,1.6064453125,,,,,,,,,,,,,,,,,,,,,
59,2015-11-07,14:39:11.20720,4.01404,,683.59375,15.2289627,-1.5278087,13.5,62.5,14,2.000002,18.8235294117647,0,4.696,59.808349609375,65.91796875,,0,,,,,0,,,127.4,,96.8,,1.6796875,,,,,,,,,,,,,,,,,,,,,
60,2015-11-07,14:39:11.26960,4.07832,,769.53125,15.2289627,-1.7207827,13.4,61.25,15,2.000002,20,0,4.248,59.979248046875,71.295166015625,,0,,,,,-1.9,,,127.4,,96.8,,1.8017578125,,,,,,,,,,,,,,,,,,,,,
61,2015-11-07,14:39:11.33200,4.14797,,902.34375,15.2289627,-1.5760522,13.3,61.875,16,8.000008,21.5686274509804,0,4.312,70.782470703125,71.77734375,,0,,,,,-0.6,,,127.4,,96.8,,1.8505859375,,,,,,,,,,,,,,,,,,,,,
62,2015-11-07,14:39:11.39440,4.20827,,957.03125,15.2289627,-1.1901042,13.2,64.0625,16,2.000002,21.5686274509804,0,4.504,67.08984375,72.149658203125,,0,,,,,-1,,,127.4,,96.8,,1.7822265625,,,,,,,,,,,,,,,,,,,,,
63,2015-11-07,14:39:11.45680,4.26791,,921.875,15.2289627,-1.2383477,13,64.375,16,9.000009,21.5686274509804,0,4.472,63.446044921875,73.297119140625,,0,,,,,0,,,127.4,,96.8,,1.767578125,,,,,,,,,,,,,,,,,,,,,
64,2015-11-07,14:39:11.51920,4.32808,,917.96875,15.2289627,-1.3830782,12.9,64.0625,15,3.000003,21.5686274509804,0,4.312,61.126708984375,75.677490234375,,0,,,,,0,,,127.4,,96.8,,1.8115234375,,,,,,,,,,,,,,,,,,,,,
65,2015-11-07,14:39:11.56600,4.3866,,1000,15.2289627,-1.4795652,12.8,63.4375,16,9.000009,21.5686274509804,2,4.216,60.5712890625,75.738525390625,,0,,,,,-1,,,127.4,,96.8,,1.8896484375,,,,,,,,,,,,,,,,,,,,,
66,2015-11-07,14:39:11.62840,4.44098,,1109.375,15.2289627,-1.5278087,12.9,63.4375,-1,3.000003,20.3921568627451,4,4.208,58.10546875,73.931884765625,,0,,,,,-1.9,,,127.4,,96.8,,1.923828125,,,,,,,,,,,,,,,,,,,,,
67,2015-11-07,14:39:11.69080,4.49973,,1128.90625,15.2289627,-1.7690262,12.9,62.5,19,2.000002,20.7843137254902,4,4.208,62.841796875,73.1201171875,,0,,,,,-2.1,,,127.4,,96.8,,1.962890625,,,,,,,,,,,,,,,,,,,,,
68,2015-11-07,14:39:11.73760,4.55362,,1128.90625,15.2289627,-1.7207827,13.2,62.5,19,2.000002,20.7843137254902,5,4.192,61.865234375,72.296142578125,,0,,,,,-2.5,,,127.4,,96.8,,1.943359375,,,,,,,,,,,,,,,,,,,,,
69,2015-11-07,14:39:11.81560,4.62545,,1160.15625,15.2289627,-2.1067307,13.4,62.1875,17,7.000007,20.7843137254902,6.5,4.144,61.248779296875,72.027587890625,,0,,,,,-1.9,,,127.4,,96.8,,2.1142578125,,,,,,,,,,,,,,,,,,,,,
70,2015-11-07,14:39:11.89360,4.7043,,1226.5625,15.2289627,-1.8172697,13.5,62.1875,20,6.000006,23.1372549019608,11,4.584,69.8486328125,72.59521484375,,0,,,,,-2.5,,,127.4,,96.8,,1.923828125,,,,,,,,,,,,,,,,,,,,,
71,2015-11-07,14:39:11.97160,4.77764,,1292.96875,15.2289627,-1.7690262,13.8,65,20,2.000002,21.9607843137255,11.5,4.256,61.492919921875,74.20654296875,,0,,,,,-2.1,,,127.4,,96.8,,2.01171875,,,,,,,,,,,,,,,,,,,,,
72,2015-11-07,14:39:12.03400,4.84624,,1335.9375,15.2289627,-1.7690262,14.2,65.3125,19,2.000002,22.3529411764706,13.5,4.456,66.80908203125,72.906494140625,,0,,,,,-1.9,,,127.4,,96.8,,2.0263671875,,,,,,,,,,,,,,,,,,,,,
73,2015-11-07,14:39:12.11200,4.93328,,1378.90625,15.2289627,-1.9137567,14.3,65.3125,21,1.000001,21.9607843137255,14.5,4.464,62.457275390625,73.05908203125,,0,,,,,-2.1,,,127.4,,96.8,,2.05078125,,,,,,,,,,,,,,,,,,,,,
74,2015-11-07,14:39:12.19000,5.00482,,1433.59375,15.2289627,-2.1549742,14.6,64.375,22,1.000001,22.3529411764706,17,4.464,65.576171875,71.978759765625,,0,,,,,-2.9,,,127.4,,96.8,,2.05078125,,,,,,,,,,,,,,,,,,,,,
75,2015-11-07,14:39:12.26800,5.08412,,1488.28125,15.2289627,-2.0102437,14.7,64.375,23,2.000002,21.9607843137255,17.5,4.464,61.688232421875,71.2158203125,,0,,,,,-3,,,127.4,,96.8,,2.0166015625,,,,,,,,,,,,,,,,,,,,,
76,2015-11-07,14:39:12.36160,5.17153,,1531.25,15.2289627,-2.2514612,14.9,63.4375,24,2.000002,21.5686274509804,15.5,4.392,62.432861328125,69.586181640625,,0,,,,,-3.4,,,127.4,,96.8,,2.109375,,,,,,,,,,,,,,,,,,,,,
77,2015-11-07,14:39:12.43960,5.2483,,1605.46875,15.2289627,-2.5891657,14.9,62.8125,24,2.000002,21.1764705882353,14,4.344,59.48486328125,68.0908203125,,0,,,,,-4,,,127.4,,96.8,,2.0654296875,,,,,,,,,,,,,,,,,,,,,
78,2015-11-07,14:39:12.50200,5.32229,,1652.34375,15.2289627,-2.8786267,14.9,61.25,26,2.000002,20.3921568627451,12,4.264,57.952880859375,66.619873046875,,0,,,,,-4.3,,,127.4,,96.8,,2.0068359375,,,,,,,,,,,,,,,,,,,,,
79,2015-11-07,14:39:12.59560,5.40341,,1671.875,15.2289627,-3.2645747,14.9,59.375,28,2.000002,19.2156862745098,9.5,3.792,48.583984375,65.399169921875,,0,,,,,-4,,,127.4,,96.8,,1.9873046875,,,,,,,,,,,,,,,,,,,,,
80,2015-11-07,14:39:12.65800,5.47605,,1710.9375,15.2289627,-3.9399837,14.6,55,30,1.000001,18.4313725490196,8,3.592,45.361328125,62.347412109375,,0,,,,,-6.6,,,127.4,,96.8,,1.943359375,,,,,,,,,,,,,,,,,,,,,
81,2015-11-07,14:39:12.73600,5.54304,,1757.8125,15.2289627,-4.4706622,14.3,51.5625,30,0,18.0392156862745,6.5,3.528,43.975830078125,59.600830078125,,0,,,,,-7,,,127.4,,96.8,,1.953125,,,,,,,,,,,,,,,,,,,,,
82,2015-11-07,14:39:12.81400,5.63118,,1789.0625,15.2289627,-4.8083667,14,48.4375,32,0,18.0392156862745,6,3.36,43.5302734375,56.207275390625,,0,,,,,-8.6,,,125.6,,96.8,,1.923828125,,,,,,,,,,,,,,,,,,,,,
83,2015-11-07,14:39:12.89200,5.70639,,1808.59375,15.2289627,-5.2908017,13.7,45.9375,34,0,17.6470588235294,6,3.192,41.180419921875,53.326416015625,,0,,,,,-9,,,125.6,,96.8,,1.953125,,,,,,,,,,,,,,,,,,,,,
84,2015-11-07,14:39:12.95440,5.77346,,1820.3125,15.2289627,-5.5802627,13.4,44.0625,34,0,17.6470588235294,5.5,3.16,40.545654296875,51.446533203125,,0,,,,,-9,,,125.6,,96.8,,1.982421875,,,,,,,,,,,,,,,,,,,,,
85,2015-11-07,14:39:13.04800,5.86119,,1851.5625,15.2289627,-5.7249932,13.3,43.125,34,0,17.6470588235294,4.5,3.096,39.453125,49.57275390625,,0,,,,,-10,,,125.6,,96.8,,1.904296875,,,,,,,,,,,,,,,,,,,,,
86,2015-11-07,14:39:13.12600,5.93831,,1890.625,15.2289627,-6.2074282,13.3,41.25,34,0,17.2549019607843,4,3.008,39.5263671875,46.795654296875,,0,,,,,-11,,,125.6,,96.8,,1.89453125,,,,,,,,,,,,,,,,,,,,,
87,2015-11-07,14:39:13.20400,6.01059,,1898.4375,15.2289627,-6.2556717,13.3,40,35,0,16.8627450980392,4,2.896,35.986328125,45.501708984375,,0,,,,,-11.6,,,125.6,,96.8,,1.875,,,,,,,,,,,,,,,,,,,,,
88,2015-11-07,14:39:13.28200,6.08845,,1902.34375,15.2289627,-6.6416197,13.4,38.125,35,0,16.078431372549,3.5,2.752,32.53173828125,43.426513671875,,0,,,,,-12.2,,,125.6,,96.8,,1.8603515625,,,,,,,,,,,,,,,,,,,,,
89,2015-11-07,14:39:13.36000,6.16654,,1917.96875,15.2289627,-7.2205417,13.6,35.625,36,0,16.078431372549,3,2.6,31.219482421875,40.52734375,,0,,,,,-13.1,,,125.6,,96.8,,1.826171875,,,,,,,,,,,,,,,,,,,,,
90,2015-11-07,14:39:13.42240,6.24057,,1941.40625,15.2289627,-7.5100027,13.8,33.75,37,0,15.6862745098039,2.5,2.456,27.5390625,38.250732421875,,0,,,,,-13.8,,,125.6,,96.8,,1.8017578125,,,,,,,,,,,,,,,,,,,,,
91,2015-11-07,14:39:13.50040,6.31496,,1949.21875,15.2289627,-7.8959507,14,31.5625,37,0,15.6862745098039,2.5,2.4,27.2705078125,35.992431640625,,0,,,,,-14.7,,,125.6,,96.8,,1.787109375,,,,,,,,,,,,,,,,,,,,,
92,2015-11-07,14:39:13.57840,6.39269,,1953.125,15.2289627,-8.2336552,14.2,30,38,0,15.2941176470588,2.5,2.304,26.3671875,34.55810546875,,0,,,,,-15.3,,,125.6,,96.8,,1.8017578125,,,,,,,,,,,,,,,,,,,,,
93,2015-11-07,14:39:13.65640,6.47211,,1957.03125,15.2289627,-8.3783857,14.3,28.75,38,0,15.2941176470588,2.5,2.36,26.092529296875,33.49609375,,0,,,,,-15.7,,,125.6,,96.8,,1.81640625,,,,,,,,,,,,,,,,,,,,,
94,2015-11-07,14:39:13.76560,6.57248,,1968.75,15.2289627,-8.4748727,14.5,28.4375,38,0,15.6862745098039,2.5,2.328,27.032470703125,32.8125,,0,,,,,-15.9,,,125.6,,96.8,,1.767578125,,,,,,,,,,,,,,,,,,,,,
95,2015-11-07,14:39:13.82800,6.64832,,1984.375,15.2289627,-8.6678467,14.6,27.5,38,0,15.6862745098039,2.5,2.328,28.948974609375,32.293701171875,,0,,,,,-15.6,,,125.6,,96.8,,1.767578125,,,,,,,,,,,,,,,,,,,,,
96,2015-11-07,14:39:13.90600,6.71592,,1984.375,15.2289627,-8.5713597,14.7,27.8125,38,0,15.6862745098039,2.5,2.376,27.886962890625,32.293701171875,,0,,,,,-15.8,,,125.6,,96.8,,1.8359375,,,,,,,,,,,,,,,,,,,,,
97,2015-11-07,14:39:13.98400,6.79844,,1984.375,15.2289627,-8.5231162,14.8,27.8125,38,0,15.6862745098039,2,2.424,29.3212890625,32.60498046875,,0,,,,,-15.9,,,125.6,,96.8,,1.845703125,,,,,,,,,,,,,,,,,,,,,
98,2015-11-07,14:39:14.06200,6.87476,,1996.09375,15.2289627,-8.3783857,15,28.75,38,0,16.4705882352941,2,2.528,32.611083984375,33.489990234375,,0,,,,,-15.7,,,125.6,,96.8,,1.904296875,,,,,,,,,,,,,,,,,,,,,
99,2015-11-07,14:39:14.14000,6.96049,,2003.90625,15.2289627,-8.1371682,15.2,30.9375,38,0,16.8627450980392,2.5,2.704,36.041259765625,35.107421875,,0,,,,,-15.4,,,125.6,,96.8,,1.9140625,,,,,,,,,,,,,,,,,,,,,
100,2015-11-07,14:39:14.23360,7.04477,,2015.625,15.2289627,-7.7994637,15.3,33.75,37,0,17.2549019607843,2.5,2.76,35.711669921875,37.066650390625,,0,,,,,-14.3,,,125.6,,96.8,,1.962890625,,,,,,,,,,,,,,,,,,,,,
101,2015-11-07,14:39:14.31160,7.12719,,2031.25,15.2289627,-7.4135157,15.3,35.9375,37,0,18.0392156862745,2.5,3.016,39.263916015625,39.080810546875,,0,,,,,-13.8,,,125.6,,96.8,,1.9384765625,,,,,,,,,,,,,,,,,,,,,
102,2015-11-07,14:39:14.38960,7.19925,,2046.875,15.2289627,-7.0758112,15.3,38.125,36,0,18.0392156862745,2,3.12,39.996337890625,41.357421875,,0,,,,,-13.1,,,125.6,,96.8,,1.9775390625,,,,,,,,,,,,,,,,,,,,,
103,2015-11-07,14:39:14.46760,7.27921,,2058.59375,15.2289627,-6.8345937,15.2,39.375,36,0,18.4313725490196,2.5,3.224,40.73486328125,42.547607421875,,0,,,,,-12.7,,,125.6,,96.8,,2.0263671875,,,,,,,,,,,,,,,,,,,,,
104,2015-11-07,14:39:14.54560,7.35721,,2078.125,15.2289627,-6.4968892,15.1,40.625,36,0,19.2156862745098,2.5,3.504,45.41015625,44.8486328125,,0,,,,,-11.8,,,125.6,,96.8,,2.041015625,,,,,,,,,,,,,,,,,,,,,
105,2015-11-07,14:39:14.60800,7.42644,,2101.5625,15.2289627,-6.2074282,15,43.75,35,0,19.2156862745098,2.5,3.512,45.123291015625,46.69189453125,,0,,,,,-11.1,,,125.6,,96.8,,2.05078125,,,,,,,,,,,,,,,,,,,,,
106,2015-11-07,14:39:14.68600,7.50247,,2132.8125,15.2289627,-5.9662107,14.9,44.6875,35,0,20,3,3.552,48.9990234375,48.077392578125,,0,,,,,-10.5,,,125.6,,96.8,,2.1484375,,,,,,,,,,,,,,,,,,,,,
107,2015-11-07,14:39:14.76400,7.58317,,2156.25,15.2289627,-5.3390452,14.7,47.8125,34,0,20.7843137254902,4,3.736,53.23486328125,52.52685546875,,0,,,,,-10.1,,,125.6,,96.8,,2.158203125,,,,,,,,,,,,,,,,,,,,,
108,2015-11-07,14:39:14.84200,7.66043,,2187.5,15.2289627,-5.0495842,14.6,50.3125,34,0,21.5686274509804,3.5,3.824,53.765869140625,55.1025390625,,0,,,,,-8.5,,,125.6,,96.8,,2.1728515625,,,,,,,,,,,,,,,,,,,,,
109,2015-11-07,14:39:14.93560,7.7428,,2222.65625,15.2289627,-4.7601232,14.4,52.1875,33,0,22.3529411764706,4.5,3.912,57.183837890625,57.28759765625,,0,,,,,-7.7,,,125.6,,96.8,,2.2607421875,,,,,,,,,,,,,,,,,,,,,
110,2015-11-07,14:39:14.99800,7.81453,,2265.625,15.2289627,-4.1812012,14.5,55.625,33,0,23.1372549019608,5,4.136,60.77880859375,61.749267578125,,0,,,,,-7.2,,,125.6,,96.8,,2.2705078125,,,,,,,,,,,,,,,,,,,,,
111,2015-11-07,14:39:15.07600,7.88411,,2312.5,15.2289627,-3.7470097,14.6,57.8125,32,0,23.1372549019608,4.5,4.088,59.320068359375,64.520263671875,,0,,,,,-6.4,,,125.6,,96.8,,2.275390625,,,,,,,,,,,,,,,,,,,,,
112,2015-11-07,14:39:15.13840,7.95534,,2355.46875,15.2289627,-3.7952532,14.7,59.0625,32,0,23.5294117647059,4.5,4.136,60.4248046875,65.07568359375,,0,,,,,-6.2,,,125.6,,96.8,,2.3193359375,,,,,,,,,,,,,,,,,,,,,
113,2015-11-07,14:39:15.20080,8.01272,,2386.71875,15.2289627,-3.6022792,14.7,60.3125,32,0,23.921568627451,4.5,4.384,63.29345703125,66.30859375,,0,,,,,-6.2,,,125.6,,96.8,,2.34375,,,,,,,,,,,,,,,,,,,,,
114,2015-11-07,14:39:15.26320,8.07482,,2425.78125,15.2289627,-3.4093052,14.9,61.875,32,0,24.3137254901961,4.5,4.4,63.43994140625,68.02978515625,,0,,,,,-5.5,,,125.6,,96.8,,2.3486328125,,,,,,,,,,,,,,,,,,,,,